Theta_e
352 352 352 352 352 352 352 351 352 353 354 355 356 356 355 354 352 352 352 351 350 352 354 353 352 350 352 354 353 354 356 355 357 356 354 354 356 355 354 353 352 351
353 352 353 352 353 352 351 351 352 353 352 352 353 354 353 353 353 351 351 351 352 354 354 353 352 350 350 353 353 353 355 354 356 357 355 355 356 356 355 354 354 351
353 353 353 353 353 353 353 352 352 353 353 352 351 352 352 353 353 351 351 352 354 355 354 354 354 351 349 351 352 354 356 355 356 358 356 356 356 357 356 355 355 353
353 353 352 353 354 354 353 352 352 352 353 353 352 352 352 353 353 352 351 353 354 354 355 354 355 354 351 351 353 356 357 356 356 356 356 357 357 357 357 356 356 355
352 352 352 352 352 352 352 352 352 353 354 354 354 353 353 352 353 353 352 353 353 355 356 355 356 356 353 352 355 358 358 358 357 355 355 358 359 358 358 357 356 356
352 352 351 351 350 350 351 352 353 354 355 355 354 354 353 351 352 353 353 354 355 355 357 357 357 357 357 355 355 357 358 359 359 357 356 359 359 359 359 357 357 357
351 351 350 350 350 350 352 354 354 354 353 354 354 353 353 351 351 352 352 354 356 356 356 357 356 356 357 356 355 356 357 358 358 357 357 359 359 359 359 359 357 357
351 351 349 350 351 351 352 354 354 353 352 352 354 354 353 353 352 353 353 354 356 356 356 356 355 354 355 356 356 356 357 358 359 358 358 360 359 359 359 359 358 357
350 350 349 350 352 353 354 354 353 353 352 351 354 356 355 354 354 355 354 354 356 356 356 356 356 355 355 356 356 355 356 357 358 359 359 360 360 360 361 360 359 358
351 350 351 351 353 354 354 353 353 354 353 352 354 357 357 355 354 355 355 355 355 356 356 356 356 356 355 355 355 355 354 355 356 356 357 358 359 360 360 360 360 360
352 352 352 352 353 353 353 353 353 354 354 354 354 356 357 356 355 354 355 355 355 355 355 355 354 355 354 354 355 354 354 355 355 355 355 356 357 357 357 358 359 359
353 354 353 353 353 353 353 353 353 353 353 353 354 355 355 356 356 355 355 354 354 354 354 354 353 353 352 352 353 354 354 354 355 356 356 355 356 357 357 357 358 358
352 352 353 354 354 353 354 354 354 354 353 353 354 354 354 354 355 355 354 353 353 353 353 353 353 353 352 352 352 353 354 354 355 357 357 357 356 357 358 358 358 358
353 352 352 353 354 353 353 355 355 355 355 354 354 354 354 354 354 354 354 353 354 353 354 354 353 352 352 352 351 352 352 353 353 354 356 358 357 357 357 357 357 357
355 354 354 354 354 353 354 355 355 355 355 355 355 354 354 354 354 354 354 354 354 354 353 353 353 351 351 351 351 351 352 353 353 353 355 357 357 357 357 357 356 356
354 354 355 355 355 355 355 355 355 356 355 355 355 355 354 354 354 354 354 354 353 353 352 352 352 351 350 350 350 350 351 353 353 353 353 355 356 357 357 357 357 356
351 352 354 355 356 356 356 355 355 355 355 355 355 355 354 354 354 353 353 352 352 352 351 351 351 351 350 349 348 349 349 350 352 354 354 354 355 356 356 357 357 357
350 351 353 353 353 354 355 355 354 354 354 354 353 353 352 352 352 351 351 351 351 350 350 351 350 349 348 348 348 348 348 348 350 353 355 356 356 356 356 357 357 357
350 351 351 351 351 351 352 353 353 353 353 353 352 352 351 351 351 351 351 351 351 351 352 351 349 347 348 347 347 347 347 347 348 349 352 354 356 356 357 357 357 357
350 350 350 349 349 349 350 351 351 351 352 352 352 352 351 351 351 352 352 352 353 353 353 351 349 349 349 348 347 347 348 348 347 347 349 351 352 353 355 356 356 356
349 349 349 348 349 348 348 348 347 347 347 348 349 349 350 351 351 351 351 351 352 353 351 350 349 350 351 350 349 349 349 349 349 349 350 350 350 351 351 352 352 353
346 346 345 345 344 344 343 342 342 343 343 344 345 346 348 349 349 350 350 350 351 351 349 347 347 349 350 350 351 350 350 351 350 350 351 351 351 351 350 351 351 351
342 342 341 341 340 340 340 339 339 340 341 342 343 344 345 346 347 347 348 348 348 348 346 345 344 346 347 349 350 351 351 352 352 352 352 352 352 352 352 351 351 351
342 341 342 342 342 341 342 341 340 341 341 341 341 341 342 342 343 343 343 344 344 344 343 341 341 342 343 346 349 350 351 352 352 353 353 353 354 354 353 353 353 352
339 340 341 342 342 342 342 342 342 341 340 338 338 337 337 337 337 337 338 339 341 341 339 337 336 337 338 340 344 346 348 350 351 352 352 352 353 353 353 354 354 353
338 339 339 340 341 340 339 338 337 336 334 334 333 332 332 332 332 333 333 334 337 338 338 335 334 334 335 335 337 340 342 344 346 346 346 347 348 350 351 351 351 351
Wind_Speed
18 17 17 16 15 15 15 15 14 13 12 11 10 10 10 10 9 10 12 11 10 9 7 6 5 6 7 7 7 7 6 6 5 5 5 5 5 4 4 4 4 5
19 18 17 16 16 15 15 15 14 13 13 12 11 11 10 9 8 10 11 11 10 9 8 6 6 7 8 8 8 7 7 7 6 6 7 6 5 5 5 4 5 6
20 19 17 15 15 14 14 14 13 12 11 11 11 11 10 9 8 9 11 11 10 9 8 7 6 7 8 9 8 8 7 8 7 7 7 7 7 6 6 5 5 5
22 21 19 16 14 13 14 14 13 11 10 10 10 10 10 10 9 9 10 10 10 9 9 8 6 7 8 9 9 8 8 9 9 8 8 8 8 8 7 6 6 5
24 23 21 18 15 14 13 13 12 11 10 10 9 10 10 9 9 9 9 9 8 8 8 8 7 7 8 9 9 8 8 8 8 8 9 8 8 8 7 7 7 7
25 24 23 19 16 14 13 13 12 11 10 9 9 9 8 8 9 9 9 8 7 7 7 7 7 7 8 9 10 10 8 7 7 8 8 8 8 7 7 8 9 8
23 23 23 19 16 15 14 13 12 11 9 8 8 7 7 7 8 9 8 8 7 7 7 7 7 7 7 9 10 11 10 9 9 9 8 8 8 8 7 8 9 9
21 21 22 20 16 16 15 14 13 12 10 8 7 7 7 7 8 8 8 7 7 7 7 7 7 6 7 8 9 10 10 9 9 9 9 8 8 8 8 8 9 9
20 21 21 20 17 16 16 14 13 13 12 10 8 7 7 7 8 8 8 7 7 7 7 7 7 6 7 8 8 9 9 9 8 9 9 8 8 8 8 8 8 9
20 20 19 19 17 16 16 15 13 12 13 12 9 8 8 7 8 8 8 7 7 8 7 8 7 7 8 8 9 9 9 10 9 9 9 9 9 8 8 8 8 8
18 17 18 18 18 16 15 15 13 12 13 13 11 10 9 9 9 9 9 8 8 8 8 9 9 9 9 9 9 9 9 10 10 10 10 10 10 10 9 9 9 9
19 17 17 18 18 16 14 14 13 13 13 14 14 13 11 10 10 10 10 10 9 9 9 9 10 10 10 10 10 10 10 11 11 11 12 12 11 10 10 10 10 10
20 20 19 17 17 17 15 13 13 13 13 13 14 13 12 12 11 11 11 12 12 11 11 10 10 11 11 11 11 11 12 12 12 11 11 12 11 11 10 10 10 11
19 20 21 19 19 19 18 15 13 13 13 13 12 12 12 12 11 10 11 11 11 12 11 11 10 10 11 11 11 11 12 12 13 13 12 12 12 12 10 10 11 11
15 17 19 19 18 19 19 17 15 14 14 13 13 13 12 12 11 11 10 10 11 12 12 11 11 11 10 10 11 12 13 13 13 14 13 12 13 13 12 12 12 12
14 15 16 17 16 16 18 17 16 15 14 14 14 14 14 14 14 12 11 10 11 12 13 13 13 13 12 11 10 11 12 13 14 15 15 14 14 14 14 13 13 12
16 14 13 14 13 14 16 16 16 16 15 15 14 14 14 14 12 11 10 9 9 10 11 11 12 13 13 13 12 11 11 12 13 14 14 15 14 14 14 14 13 13
15 12 9 10 11 12 13 13 14 14 14 14 14 14 13 11 9 9 9 7 7 7 6 5 7 11 13 12 12 11 11 11 12 13 13 13 13 13 13 13 13 12
11 10 7 7 9 11 10 10 10 10 10 10 11 10 9 8 7 7 6 5 4 3 2 3 6 9 10 9 10 10 10 10 12 13 13 12 12 12 12 12 12 12
11 10 9 9 11 13 11 9 9 9 9 8 8 7 7 6 5 4 4 3 3 3 4 4 4 5 6 7 8 8 8 9 10 11 12 12 12 12 11 11 11 11
14 13 12 11 10 10 8 7 7 8 8 8 8 7 5 5 4 4 4 4 4 5 4 3 1 2 3 5 6 6 7 8 9 9 10 10 11 11 11 12 12 12
17 17 16 14 13 12 12 11 11 12 12 11 11 9 7 6 5 5 5 6 6 6 5 4 2 0 2 4 4 5 5 6 8 8 9 9 9 10 10 10 10 12
19 19 19 18 17 15 14 12 11 11 10 9 11 11 11 10 10 9 8 8 7 6 6 5 3 2 1 2 3 4 3 3 5 6 7 7 7 7 7 7 8 9
18 18 19 19 18 16 15 16 15 14 13 12 14 14 14 13 13 12 10 9 8 7 7 8 7 5 3 2 1 2 3 2 1 3 4 5 5 6 5 4 5 6
17 17 18 18 18 18 20 21 20 19 18 17 17 16 15 15 15 14 13 11 9 8 9 10 11 9 7 5 5 3 3 4 3 1 1 3 5 6 6 5 4 4
18 19 20 20 21 22 24 23 21 20 18 17 16 16 16 16 16 16 15 12 9 8 9 10 11 12 10 9 8 7 6 6 6 5 4 4 5 5 6 5 3 3
Wind_Direction
218 220 224 228 229 229 229 230 230 228 229 229 224 223 224 227 229 223 222 222 219 220 226 231 233 229 229 227 224 231 239 242 247 254 260 274 285 284 277 275 275 278
217 220 224 228 232 235 235 234 234 235 237 237 231 229 233 239 241 228 220 216 215 222 228 230 233 227 223 225 228 234 242 245 250 260 268 275 281 281 278 278 277 275
216 220 224 227 230 235 236 236 237 236 236 237 235 234 238 243 244 229 217 214 217 226 230 229 231 229 223 221 226 234 241 246 249 259 270 274 276 279 279 279 279 277
217 220 224 226 228 231 234 235 236 233 230 234 238 239 242 244 241 228 217 218 224 231 234 232 231 231 227 222 224 233 243 248 250 255 265 272 275 279 279 277 278 278
220 221 223 226 229 232 233 233 231 230 233 239 243 244 247 243 234 226 223 225 231 236 238 238 237 235 232 226 226 235 245 248 249 255 262 269 275 277 277 276 276 277
223 223 223 225 231 232 230 228 227 229 235 240 243 244 244 237 230 227 230 232 233 235 235 238 242 241 238 234 233 239 246 247 250 255 261 266 271 273 275 277 279 280
225 224 223 224 227 229 227 226 229 232 234 235 239 240 236 233 230 230 236 238 235 236 237 240 246 247 244 242 241 244 250 255 258 263 266 267 270 273 275 277 282 284
224 223 224 224 224 225 224 226 233 237 238 235 233 235 233 233 230 230 238 241 239 243 246 245 248 249 247 246 248 251 256 257 259 265 270 270 274 280 280 282 286 288
225 224 225 225 224 223 222 224 230 236 241 240 230 226 231 235 231 229 237 243 244 249 252 251 252 254 254 256 259 262 263 262 260 264 268 269 273 280 283 285 288 289
224 224 224 224 224 224 225 226 228 232 238 240 232 222 226 233 234 232 237 241 244 250 255 258 259 262 265 266 267 269 269 268 268 269 271 272 273 278 283 286 287 288
220 219 221 224 225 226 228 229 230 229 232 235 233 227 225 229 233 236 240 242 244 248 253 259 264 267 269 268 268 270 271 270 269 271 273 275 278 282 287 290 289 287
222 219 220 224 227 229 230 229 229 229 229 230 231 232 231 231 232 235 242 248 252 257 260 264 269 273 274 273 270 270 274 275 272 272 275 278 279 281 282 285 286 288
229 229 228 226 228 231 231 228 228 228 228 228 228 231 234 236 236 238 246 255 260 264 268 270 274 278 278 280 277 274 276 279 276 273 275 277 279 280 277 275 277 283
230 234 235 233 233 236 235 231 228 227 228 230 229 230 232 234 235 237 243 249 253 258 264 268 274 279 280 284 287 285 283 283 282 280 276 275 279 281 279 276 274 277
224 229 234 235 235 238 238 234 232 232 232 234 234 232 232 231 233 236 238 242 247 252 257 262 268 272 275 281 287 291 291 287 286 286 281 276 277 280 279 278 279 277
225 230 235 236 233 236 238 235 234 234 232 233 234 234 236 238 240 241 239 241 247 251 255 260 267 270 272 274 276 283 287 286 285 288 287 282 280 280 280 279 279 278
228 230 234 236 235 235 237 236 235 234 233 232 231 230 233 236 235 233 233 238 243 249 253 258 265 268 270 271 271 272 274 276 280 283 285 284 280 278 279 280 279 279
227 223 222 234 243 242 237 233 231 230 228 224 221 220 220 217 212 214 221 229 235 241 242 241 250 258 263 266 270 273 272 268 269 270 272 275 274 273 275 278 279 281
218 213 204 214 234 239 234 224 216 212 208 204 202 203 200 195 194 199 204 206 210 207 177 187 232 249 256 260 263 269 271 266 264 265 266 267 268 270 273 276 279 282
193 192 192 197 213 222 222 216 204 193 187 186 181 178 178 181 179 175 174 174 159 140 145 181 219 234 242 248 253 260 263 263 263 263 265 266 268 270 271 273 276 278
172 169 166 167 178 183 175 162 147 132 125 121 116 114 124 147 156 152 143 139 140 137 134 150 196 228 239 240 242 248 256 261 263 262 263 266 268 270 273 275 277 277
147 143 137 132 129 127 124 120 111 100 98 107 113 114 115 118 122 124 123 126 138 139 121 106 101 274 264 251 243 245 254 264 266 265 266 267 266 267 272 277 280 282
126 125 122 118 116 115 114 115 113 107 107 120 128 127 123 117 113 112 112 115 122 123 114 102 81 45 344 275 249 237 236 254 266 267 267 268 272 274 273 274 278 282
116 117 116 114 113 113 112 111 113 115 117 121 123 120 117 116 115 111 103 100 101 103 109 106 90 70 59 63 112 188 184 171 226 268 271 271 277 282 281 280 281 285
111 111 112 111 109 108 109 111 115 118 119 118 117 115 113 114 116 111 102 96 94 95 97 94 88 81 72 68 74 92 114 117 119 126 309 308 299 291 287 284 284 293
113 113 113 111 110 108 108 110 113 115 115 112 112 112 110 109 109 108 104 97 92 95 89 78 79 81 74 69 72 73 78 90 97 94 72 24 349 326 311 304 308 324